Location: Unspecified
(0.0000°N, 0.0000°E)
Time: 05:39:58
(UTC+00:00)

S-56A Canister/Altair - Pass Details

Date: 29 May 2024
Orbit: 637 x 2489 km, 38.9° (Epoch: 21 June)

Event Time Altitude Azimuth Distance (km) Brightness Sun altitude
Rises 11:43:18 0° 324° (NW) 3,900 11.4 68.0°
Reaches altitude 10° 11:46:38 10° 333° (NNW) 2,671 10.7 68.1°
Maximum altitude 11:52:03 34° 37° (NE) 1,239 9.6 68.2°
Drops below altitude 10° 11:56:20 10° 102° (ESE) 2,095 9.9 68.3°
Sets 11:58:39 0° 112° (ESE) 2,945 10.4 68.3°
